CAPE
0 0 0 0 0 0 0 0 0 0 0 0 0 0 0 0 0 0 0 0 0 0 0 0 0 0 0 0 0 0 0 0 0 0 0 0 0 0 0 0 0 0 0 0 786
0 0 0 0 0 0 0 0 0 0 0 0 0 0 0 0 0 0 0 0 0 0 0 0 0 0 0 0 0 0 0 0 0 0 0 0 0 0 0 0 0 0 0 0 0
0 0 0 0 0 0 0 0 0 0 0 0 0 0 0 0 0 0 0 0 0 0 0 0 0 0 0 0 0 0 0 0 0 0 0 0 0 0 0 0 0 0 0 0 0
0 0 0 0 0 0 0 0 0 0 0 0 0 0 0 0 0 0 0 0 0 0 0 0 0 0 0 0 0 0 0 0 0 0 0 0 0 0 0 0 0 0 0 0 0
0 0 0 0 0 0 0 0 0 0 0 0 0 0 0 0 0 0 0 0 0 0 0 0 0 0 0 0 0 0 0 0 0 0 0 0 0 0 0 0 0 0 0 0 0
0 0 0 0 0 0 0 0 0 0 0 0 0 0 0 0 0 0 0 0 0 0 0 0 0 0 0 0 0 0 0 0 0 0 0 0 0 0 0 0 0 0 0 0 0
0 0 0 0 0 0 0 0 0 0 0 0 0 0 0 0 0 0 0 0 0 0 0 0 0 0 0 0 0 0 0 0 0 0 0 0 0 0 0 0 0 0 0 0 0
0 0 0 0 0 0 0 0 0 0 0 0 0 0 0 0 0 0 0 0 0 0 0 0 0 0 0 0 0 0 0 0 0 0 0 0 0 0 0 0 0 0 0 0 0
0 0 0 0 0 0 0 0 0 0 0 0 0 0 0 0 0 0 0 0 0 0 0 0 0 0 0 0 0 0 0 0 0 0 0 0 0 0 0 0 0 0 0 0 0
0 0 0 0 0 0 0 0 0 0 0 0 0 0 0 0 0 0 0 0 0 0 0 0 0 0 0 0 0 0 0 0 0 0 0 0 0 0 0 0 0 0 0 0 0
0 0 0 0 0 0 0 0 0 0 0 0 0 0 0 0 0 0 0 0 0 0 0 0 0 0 0 0 0 0 0 0 0 0 0 0 0 0 0 0 0 0 0 0 0
0 0 0 0 0 0 0 0 0 0 0 0 0 0 0 0 0 0 0 0 0 0 0 0 0 0 0 0 0 0 0 0 0 0 0 0 0 0 0 0 0 0 0 0 0
0 0 0 0 0 0 0 0 0 0 0 0 0 0 0 0 0 0 0 0 0 0 0 0 0 0 0 0 0 0 0 0 0 0 0 0 0 0 0 0 0 0 0 0 0
0 0 0 0 0 0 0 0 0 0 0 0 0 0 0 0 0 0 0 0 0 0 0 0 0 0 0 0 0 0 0 0 0 0 0 0 0 0 0 0 0 0 0 0 0
0 0 0 0 0 0 0 0 0 0 0 0 0 0 0 0 0 0 0 0 0 0 0 0 0 0 0 0 0 0 0 0 0 0 1 0 0 3 0 1 0 0 0 0 0
0 0 0 0 0 0 0 0 0 0 0 0 0 0 0 0 0 0 0 0 0 0 0 0 0 0 0 0 0 0 0 0 0 0 1 0 0 0 3 15 2 0 0 0 0
0 0 0 0 0 0 0 0 0 0 0 0 0 0 0 0 0 0 0 0 0 0 0 0 0 0 0 0 0 0 0 0 0 0 3 3 0 1 3 10 17 5 0 0 0
0 0 0 0 0 0 0 0 0 0 0 0 0 0 0 0 0 0 0 0 0 0 0 0 0 0 0 0 0 0 0 0 0 5 4 1 0 0 13 6 0 1 0 0 0
0 0 0 0 0 0 0 0 0 0 0 0 0 0 0 0 0 0 0 0 0 0 0 0 0 0 0 0 0 0 0 0 4 1 0 1 0 0 0 1 3 0 0 0 0
0 0 0 0 0 0 0 0 0 0 0 0 0 0 0 0 0 0 0 0 0 0 0 0 0 0 0 0 0 0 0 0 0 0 0 0 0 0 0 0 0 0 0 0 0
0 0 0 0 0 0 0 0 0 0 0 0 0 0 0 0 0 0 0 0 0 0 0 0 0 0 0 0 0 0 0 0 0 0 0 0 0 0 0 0 0 0 0 0 0
0 0 0 0 0 0 0 0 0 0 0 0 0 0 0 0 0 0 0 0 0 0 0 0 0 0 0 0 0 0 0 0 0 0 0 0 0 0 0 0 0 0 0 0 0
0 0 0 0 0 0 0 0 0 0 0 0 0 0 0 0 0 0 0 0 0 0 0 0 0 0 0 0 0 0 0 0 0 0 0 0 0 0 0 0 0 0 0 0 0
0 0 0 0 0 0 0 0 0 0 0 0 0 0 0 0 0 0 0 0 0 0 0 0 0 0 0 0 0 0 0 0 0 0 0 0 0 0 0 0 0 0 0 0 0
0 0 0 0 0 0 0 0 0 0 0 0 0 0 0 0 0 0 0 0 0 0 0 0 0 0 0 0 0 0 0 0 0 0 0 0 0 0 0 0 0 0 0 0 0
0 0 0 0 0 0 0 0 0 0 0 0 0 0 0 0 0 0 0 0 0 0 0 0 0 0 0 0 0 0 0 0 0 0 0 0 0 0 0 0 0 0 0 0 0
0 0 0 0 0 0 0 0 0 0 0 0 0 0 0 0 0 0 0 0 0 0 0 0 0 0 0 0 0 0 0 0 0 0 0 0 0 0 0 0 0 0 0 0 0
CIN
0 0 0 0 0 0 0 0 0 0 0 0 0 0 0 0 0 0 0 0 0 0 0 0 0 0 0 0 0 0 0 0 0 0 0 0 0 0 0 0 0 0 0 0 -32
0 0 0 0 0 0 0 0 0 0 0 0 0 0 0 0 0 0 0 0 0 0 0 0 0 0 0 0 0 0 0 0 0 0 0 0 0 0 0 0 0 0 0 0 0
0 0 0 0 0 0 0 0 0 0 0 0 0 0 0 0 0 0 0 0 0 0 0 0 0 0 0 0 0 0 0 0 0 0 0 0 0 0 0 0 0 0 0 0 0
0 0 0 0 0 0 0 0 0 0 0 0 0 0 0 0 0 0 0 0 0 0 0 0 0 0 0 0 0 0 0 0 0 0 0 0 0 0 0 0 0 0 0 0 0
0 0 0 0 0 0 0 0 0 0 0 0 0 0 0 0 0 0 0 0 0 0 0 0 0 0 0 0 0 0 0 0 0 0 0 0 0 0 0 0 0 0 0 0 0
0 0 0 0 0 0 0 0 0 0 0 0 0 0 0 0 0 0 0 0 0 0 0 0 0 0 0 0 0 0 0 0 0 0 0 0 0 0 0 0 0 0 0 0 0
0 0 0 0 0 0 0 0 0 0 0 0 0 0 0 0 0 0 0 0 0 0 0 0 0 0 0 0 0 0 0 0 0 0 0 0 0 0 0 0 0 0 0 0 0
0 0 0 0 0 0 0 0 0 0 0 0 0 0 0 0 0 0 0 0 0 0 0 0 0 0 0 0 0 0 0 0 0 0 0 0 0 0 0 0 0 0 0 0 0
0 0 0 0 0 0 0 0 0 0 0 0 0 0 0 0 0 0 0 0 0 0 0 0 0 0 0 0 0 0 0 0 0 0 0 0 0 0 0 0 0 0 0 0 0
0 0 0 0 0 0 0 0 0 0 0 0 0 0 0 0 0 0 0 0 0 0 0 0 0 0 0 0 0 0 0 0 0 0 0 0 0 0 0 0 0 0 0 0 0
0 0 0 0 0 0 0 0 0 0 0 0 0 0 0 0 0 0 0 0 0 0 0 0 0 0 0 0 0 0 0 0 0 0 0 0 0 0 0 0 0 0 0 0 0
0 0 0 0 0 0 0 0 0 0 0 0 0 0 0 0 0 0 0 0 0 0 0 0 0 0 0 0 0 0 0 0 0 0 0 0 0 0 0 0 0 0 0 0 0
0 0 0 0 0 0 0 0 0 0 0 0 0 0 0 0 0 0 0 0 0 0 0 0 0 0 0 0 0 0 0 0 0 0 0 0 0 0 0 0 0 0 0 0 0
0 0 0 0 0 0 0 0 0 0 0 0 0 0 0 0 0 0 0 0 0 0 0 0 0 0 0 0 0 0 0 0 0 0 0 0 0 0 0 0 0 0 0 0 0
0 0 0 0 0 0 0 0 0 0 0 0 0 0 0 0 0 0 0 0 0 0 0 0 0 0 0 0 0 0 0 0 0 0 -1 0 0 0 0 0 0 0 0 0 0
0 0 0 0 0 0 0 0 0 0 0 0 0 0 0 0 0 0 0 0 0 0 0 0 0 0 0 0 0 0 0 0 0 0 0 0 0 0 0 0 0 0 0 0 0
0 0 0 0 0 0 0 0 0 0 0 0 0 0 0 0 0 0 0 0 0 0 0 0 0 0 0 0 0 0 0 0 0 -1 0 0 0 0 0 0 0 0 0 0 0
0 0 0 0 0 0 0 0 0 0 0 0 0 0 0 0 0 0 0 0 0 0 0 0 0 0 0 0 0 0 0 0 -1 0 0 -1 -2 0 0 -2 -1 0 0 0 0
0 0 0 0 0 0 0 0 0 0 0 0 0 0 0 0 0 0 0 0 0 0 0 0 0 0 0 0 0 0 0 0 -1 0 0 0 0 -1 0 0 -1 0 0 0 0
0 0 0 0 0 0 0 0 0 0 0 0 0 0 0 0 0 0 0 0 0 0 0 0 0 0 0 0 0 0 0 0 0 0 0 0 0 -1 0 0 0 0 0 0 0
0 0 0 0 0 0 0 0 0 0 0 0 0 0 0 0 0 0 0 0 0 0 0 0 0 0 0 0 0 0 0 0 0 0 0 0 0 0 0 0 0 0 0 0 0
0 0 0 0 0 0 0 0 0 0 0 0 0 0 0 0 0 0 0 0 0 0 0 0 0 0 0 0 0 0 0 0 0 0 0 0 0 0 0 0 0 0 0 0 0
0 0 0 0 0 0 0 0 0 0 0 0 0 0 0 0 0 0 0 0 0 0 0 0 0 0 0 0 0 0 0 0 0 0 0 0 0 0 0 0 0 0 0 0 0
0 0 0 0 0 0 0 0 0 0 0 0 0 0 0 0 0 0 0 0 0 0 0 0 0 0 0 0 0 0 0 0 0 0 0 0 0 0 0 0 0 0 0 0 0
0 0 0 0 0 0 0 0 0 0 0 0 0 0 0 0 0 0 0 0 0 0 0 0 0 0 0 0 0 0 0 0 0 0 0 0 0 0 0 0 0 0 0 0 0
0 0 0 0 0 0 0 0 0 0 0 0 0 0 0 0 0 0 0 0 0 0 0 0 0 0 0 0 0 0 0 0 0 0 0 0 0 0 0 0 0 0 0 0 0
0 0 0 0 0 0 0 0 0 0 0 0 0 0 0 0 0 0 0 0 0 0 0 0 0 0 0 0 -3 -1 0 0 0 0 0 0 0 0 0 0 0 0 0 0 0
Wind_Speed
14 14 14 13 12 12 12 12 11 10 8 8 9 9 9 10 7 11 16 7 8 14 8 6 4 7 4 4 4 3 5 1 3 3 4 4 7 6 12 13 9 15 16 19 9
15 15 14 14 14 14 13 12 12 11 9 9 9 10 10 9 4 11 5 12 14 14 7 7 7 7 4 3 3 6 4 9 5 3 3 6 7 6 10 16 13 22 28 23 22
17 17 16 15 14 13 13 11 11 10 9 8 9 10 7 1 7 8 10 16 17 10 2 2 1 3 4 3 4 1 4 3 1 3 3 2 17 13 5 14 11 14 18 21 23
18 17 17 16 15 13 11 10 9 9 9 8 10 11 8 3 7 9 18 21 15 8 4 5 7 5 5 5 4 3 4 4 6 8 6 3 7 21 21 7 11 14 15 18 24
17 17 16 14 13 11 10 9 8 8 9 11 12 10 7 8 2 10 18 16 6 4 5 4 6 3 4 1 4 2 3 5 7 8 9 16 14 16 19 13 12 16 21 20 19
17 17 16 15 13 12 10 9 8 7 8 9 12 7 7 19 8 11 11 9 8 6 3 4 3 1 2 2 3 2 3 4 8 7 11 11 12 7 15 13 14 17 18 19 20
17 16 16 15 14 12 10 10 8 8 6 6 9 4 19 7 8 11 9 5 6 3 5 4 5 19 7 4 4 4 3 3 11 12 4 3 11 13 12 14 16 17 16 17 20
18 17 16 14 14 13 11 10 9 9 8 4 2 6 8 6 8 16 11 15 10 7 4 8 11 9 8 7 7 7 7 7 6 13 8 4 2 10 12 11 16 17 15 16 18
18 17 16 14 13 12 10 9 5 4 6 3 7 8 6 13 20 13 7 13 6 6 17 12 10 7 14 6 8 11 6 7 8 11 6 8 3 11 12 14 14 15 16 15 16
16 16 15 14 13 12 9 4 7 7 7 3 5 7 8 8 9 12 13 9 7 6 10 14 10 8 16 16 5 8 7 7 7 11 7 10 7 9 12 14 14 14 15 16 17
17 16 15 14 12 11 6 5 8 10 12 8 1 4 4 7 13 16 10 11 11 10 7 13 14 11 8 7 3 5 7 11 5 5 8 6 5 8 10 13 16 16 16 17 19
17 16 15 12 10 6 6 7 2 3 7 5 5 10 7 3 12 25 16 9 11 13 3 9 14 6 4 9 11 10 13 14 8 12 9 3 5 5 12 14 14 16 16 18 19
16 16 15 10 3 9 6 4 3 3 6 4 5 7 4 9 7 18 11 7 8 13 15 11 3 8 11 9 13 8 9 10 15 15 11 10 4 4 9 13 13 15 15 17 19
15 15 16 6 10 2 4 5 3 2 7 11 9 8 15 5 7 9 11 3 8 5 2 8 5 10 6 10 11 13 8 16 18 9 5 4 3 9 11 12 16 17 18 17 19
16 14 13 11 5 4 3 5 3 4 6 9 6 3 7 11 3 19 9 7 6 5 7 2 6 6 7 11 11 10 18 19 21 16 6 9 2 8 10 15 18 19 19 20 19
14 13 10 6 4 1 4 2 4 9 3 6 4 5 7 7 4 4 11 9 3 3 8 4 4 4 3 20 4 10 12 18 1 3 3 7 7 8 11 16 18 18 18 18 19
12 10 5 2 2 4 2 4 7 9 5 7 5 6 4 7 5 6 6 17 7 6 8 6 2 7 4 9 10 21 13 7 5 2 5 12 12 6 9 11 13 16 17 16 16
9 3 4 3 5 1 4 8 11 2 3 3 5 1 5 8 4 7 4 5 7 4 3 6 7 8 14 4 6 12 4 3 7 5 4 9 6 6 10 10 14 14 12 16 18
2 3 4 6 3 3 8 10 6 1 3 5 2 5 5 6 5 6 5 4 5 6 5 6 5 4 7 8 4 11 7 10 5 6 4 4 8 5 16 15 15 16 17 16 17
3 3 3 9 2 6 9 6 2 3 3 3 4 5 6 6 6 5 4 4 5 5 2 2 5 3 7 6 4 2 7 6 5 5 3 3 3 4 15 16 16 16 17 17 16
5 5 4 7 5 9 7 4 3 3 1 4 2 3 3 4 3 2 3 2 2 6 3 2 2 8 4 4 4 7 6 4 2 4 3 3 2 3 8 12 13 14 15 16 16
4 5 4 4 8 3 3 4 3 4 7 6 4 3 2 3 3 2 1 1 4 1 3 2 3 4 3 4 3 1 3 4 3 5 3 2 4 4 5 9 11 12 13 14 15
4 1 4 4 6 3 3 5 5 4 5 3 4 4 3 3 2 1 1 3 2 4 2 1 2 4 6 3 6 4 8 6 3 4 2 2 7 4 8 9 11 11 13 13 14
5 4 7 8 2 7 5 3 4 3 4 5 3 3 4 3 3 2 2 1 4 2 7 3 2 6 6 8 3 3 6 6 4 3 3 4 7 8 8 8 11 11 11 12 12
5 0 2 2 5 5 4 3 3 2 2 4 3 3 1 2 3 1 1 4 2 2 3 3 2 4 5 6 1 4 4 2 2 5 5 7 5 9 9 8 9 8 10 11 12
5 5 4 3 2 4 4 2 3 2 2 1 3 1 2 2 3 3 2 2 4 1 3 1 4 2 6 7 4 7 5 5 4 3 5 2 7 7 7 5 6 10 8 12 11
2 2 6 3 2 4 1 4 3 5 2 3 2 2 3 4 5 8 7 5 4 2 2 2 1 2 5 3 4 5 8 5 4 5 6 3 10 2 7 9 7 8 10 10 10
Wind_Direction
6 9 14 18 18 24 24 27 26 32 22 6 357 340 332 341 321 37 35 282 306 313 320 306 35 3 38 65 50 118 64 140 251 223 265 355 6 313 41 40 17 16 24 324 1
10 13 14 16 18 19 19 19 19 19 14 6 344 335 334 346 53 43 253 309 325 338 14 23 2 359 42 38 32 83 112 212 220 253 323 344 25 332 61 34 357 4 2 20 30
11 11 10 14 18 19 15 12 9 10 8 356 331 323 331 326 62 322 290 326 328 333 224 141 57 67 71 23 12 106 175 211 285 282 1 78 64 35 23 45 25 11 0 7 22
8 9 7 6 10 11 8 5 3 2 357 348 347 354 359 72 51 286 311 325 325 316 50 25 22 33 53 35 347 29 343 15 318 13 18 32 79 60 56 47 20 26 19 14 20
5 7 6 5 4 1 356 353 351 354 355 355 352 358 56 47 10 279 324 332 351 19 56 58 52 61 43 348 343 94 337 325 348 37 25 59 58 85 48 35 22 17 22 21 16
3 4 2 360 355 353 350 344 338 342 353 353 350 353 64 54 303 314 332 337 0 5 17 45 50 100 100 42 98 275 290 335 38 31 41 74 27 80 6 20 28 32 20 11 13
0 1 359 354 347 342 338 333 329 327 326 337 350 70 59 31 329 320 348 313 319 352 24 26 63 51 323 5 349 314 339 25 26 344 37 230 31 33 0 16 23 27 25 14 7
356 356 351 348 341 336 330 329 323 310 317 296 3 67 86 317 308 6 343 356 4 47 34 28 51 85 24 310 15 24 43 9 44 20 333 356 90 13 14 29 21 16 20 17 9
351 350 346 339 333 325 321 318 320 351 85 123 42 93 34 347 15 344 26 350 333 14 37 47 59 71 1 30 24 27 319 340 329 40 347 26 109 17 17 31 28 15 10 12 6
349 349 344 339 337 333 330 323 338 31 4 27 66 44 22 18 345 346 357 360 27 355 22 23 54 60 34 40 21 315 326 319 303 345 19 63 64 29 22 29 28 14 10 7 11
350 348 346 341 344 348 24 16 20 9 32 89 265 50 43 323 25 358 355 4 13 46 71 33 59 59 45 42 313 306 301 299 272 29 21 89 89 35 23 26 23 18 8 6 3
350 347 347 337 346 38 64 74 111 177 71 52 59 42 67 45 17 4 356 57 38 47 50 45 58 75 59 22 14 357 319 309 291 352 351 145 95 36 43 29 19 13 10 5 358
348 348 346 342 27 39 73 70 318 155 91 14 68 46 349 57 41 354 13 10 66 54 60 85 351 69 39 3 349 340 290 318 293 319 287 240 165 54 27 27 17 18 12 6 1
350 352 353 343 49 309 46 332 333 156 80 336 353 3 355 110 61 13 3 23 47 51 102 89 3 49 23 6 356 325 298 297 281 297 261 253 199 45 14 13 15 10 9 1 2
347 353 359 44 146 56 306 331 325 55 61 325 11 349 5 72 282 350 328 26 69 49 59 11 18 15 13 333 327 264 301 290 279 270 262 251 100 358 5 9 9 2 1 359 357
345 348 355 24 43 49 323 353 47 46 49 351 24 16 30 23 58 72 23 35 76 46 33 63 320 19 319 319 289 283 304 300 227 114 231 252 148 36 13 3 355 357 354 352 353
341 350 37 66 277 324 16 49 42 83 349 335 346 356 54 353 44 29 39 43 43 12 34 338 352 341 353 336 326 354 359 341 347 58 49 43 77 70 28 10 3 351 349 356 353
337 56 3 93 309 61 54 57 70 346 319 334 355 22 58 3 32 23 53 38 10 32 46 30 344 1 337 13 282 313 330 285 312 349 34 36 68 35 6 9 7 353 357 355 353
54 11 31 337 356 59 73 55 169 273 287 335 351 42 357 2 35 65 54 46 19 13 53 6 286 323 339 351 44 307 357 288 268 83 76 65 1 342 3 5 359 350 357 352 355
85 57 348 331 16 61 72 114 107 4 346 63 68 34 12 335 26 34 36 323 352 24 77 7 302 327 315 12 7 259 287 356 339 354 56 88 59 354 345 348 346 350 348 346 345
55 60 266 343 53 51 91 100 118 3 82 53 63 46 8 11 15 34 5 279 306 325 46 73 97 307 27 9 323 347 350 347 194 26 355 23 313 282 334 337 338 338 338 340 339
86 49 313 33 54 31 73 109 111 12 28 52 85 75 11 14 31 57 88 107 5 283 357 251 169 301 254 191 74 33 291 319 79 344 10 99 261 308 318 331 338 328 330 334 334
80 300 327 73 100 21 57 62 74 48 28 55 52 43 20 29 12 56 164 222 359 350 42 352 356 329 327 20 8 24 329 330 142 85 297 36 279 307 326 328 324 322 322 326 328
82 41 344 38 44 106 111 63 105 50 60 69 51 78 27 26 33 332 323 297 328 268 54 122 173 163 211 241 212 326 320 339 104 77 241 211 270 303 313 312 312 311 314 317 321
37 139 190 354 357 80 85 93 107 71 89 49 56 70 7 320 326 325 298 317 302 353 54 86 271 197 239 232 178 196 256 316 90 204 142 256 226 270 276 275 276 283 307 321 323
108 120 26 64 18 64 14 97 123 131 105 64 115 194 182 208 206 266 209 231 253 354 26 11 276 208 275 197 169 246 236 245 216 208 285 268 282 220 273 275 309 302 309 312 311
346 46 100 325 48 82 223 159 149 136 56 133 158 154 228 238 218 232 208 217 234 230 341 292 264 295 283 148 253 294 237 207 233 202 166 212 235 326 302 305 289 288 306 292 297